• In Latvia
  • List of Countries
  • For 7 days
  • Water Temperature
  • Satellite Maps
  • Weather Map
  • Weather Widgets
  • user-avatar
    Login

    Hourly Weather Kalgoorlie

    Today, 8 December, Thursday

    Time Temperature Precipitation Wind Pressure Humidity
    00:00 +15°C° 0 mm 8 mps 731 mmHg 51%
    01:00 +13°C° 0 mm 8 mps 731 mmHg 57%
    02:00 +12°C° 0 mm 7 mps 731 mmHg 63%
    03:00 +11°C° 0 mm 6 mps 732 mmHg 67%
    04:00 +10°C° 0 mm 6 mps 732 mmHg 71%
    05:00 +10°C° 0 mm 5 mps 732 mmHg 75%
    06:00 +13°C° 0 mm 5 mps 732 mmHg 66%
    07:00 +14°C° 0 mm 6 mps 733 mmHg 57%
    08:00 +16°C° 0 mm 6 mps 733 mmHg 48%
    09:00 +19°C° 0 mm 6 mps 733 mmHg 40%
    10:00 +21°C° 0 mm 5 mps 733 mmHg 32%
    11:00 +25°C° 0 mm 5 mps 732 mmHg 24%
    12:00 +26°C° 0 mm 5 mps 732 mmHg 21%
    13:00 +27°C° 0 mm 5 mps 731 mmHg 18%
    14:00 +29°C° 0 mm 5 mps 731 mmHg 15%
    15:00 +29°C° 0 mm 5 mps 731 mmHg 15%
    16:00 +29°C° 0 mm 5 mps 731 mmHg 15%
    17:00 +29°C° 0 mm 5 mps 730 mmHg 15%
    18:00 +27°C° 0 mm 5 mps 731 mmHg 17%
    19:00 +25°C° 0 mm 4 mps 731 mmHg 20%
    20:00 +22°C° 0 mm 4 mps 731 mmHg 23%
    21:00 +21°C° 0 mm 5 mps 732 mmHg 27%
    22:00 +20°C° 0 mm 6 mps 732 mmHg 31%
    23:00 +20°C° 0 mm 7 mps 732 mmHg 35%

    Tomorrow, 9 December, Friday

    Time Temperature Precipitation Wind Pressure Humidity
    00:00 +18°C° 0 mm 7 mps 732 mmHg 42%
    01:00 +17°C° 0 mm 7 mps 732 mmHg 48%
    02:00 +16°C° 0 mm 7 mps 731 mmHg 55%
    03:00 +15°C° 0 mm 7 mps 731 mmHg 58%
    04:00 +14°C° 0 mm 6 mps 731 mmHg 60%
    05:00 +14°C° 0 mm 6 mps 731 mmHg 63%
    06:00 +16°C° 0 mm 6 mps 732 mmHg 55%
    07:00 +19°C° 0 mm 6 mps 732 mmHg 48%
    08:00 +21°C° 0 mm 6 mps 732 mmHg 40%
    09:00 +23°C° 0 mm 6 mps 732 mmHg 33%
    10:00 +27°C° 0 mm 5 mps 732 mmHg 27%
    11:00 +29°C° 0 mm 5 mps 732 mmHg 20%
    12:00 +30°C° 0 mm 4 mps 731 mmHg 18%
    13:00 +31°C° 0 mm 3 mps 730 mmHg 15%
    14:00 +32°C° 0 mm 2 mps 730 mmHg 13%
    15:00 +32°C° 0 mm 2 mps 730 mmHg 13%
    16:00 +32°C° 0 mm 2 mps 729 mmHg 12%
    17:00 +34°C° 0 mm 2 mps 729 mmHg 12%
    18:00 +31°C° 0 mm 3 mps 729 mmHg 14%
    19:00 +29°C° 0 mm 3 mps 730 mmHg 16%
    20:00 +27°C° 0 mm 4 mps 730 mmHg 18%
    21:00 +26°C° 0 mm 5 mps 730 mmHg 19%
    22:00 +24°C° 0 mm 6 mps 730 mmHg 21%
    23:00 +23°C° 0 mm 6 mps 730 mmHg 23%

    Day after tomorrow, 10 December, Saturday

    Time Temperature Precipitation Wind Pressure Humidity
    00:00 +23°C° 0 mm 6 mps 730 mmHg 24%
    01:00 +22°C° 0 mm 6 mps 730 mmHg 25%
    02:00 +21°C° 0 mm 6 mps 730 mmHg 25%
    03:00 +21°C° 0 mm 5 mps 730 mmHg 27%
    04:00 +20°C° 0 mm 4 mps 730 mmHg 28%
    05:00 +19°C° 0 mm 4 mps 730 mmHg 29%
    06:00 +22°C° 0 mm 5 mps 731 mmHg 25%
    07:00 +26°C° 0 mm 6 mps 731 mmHg 22%
    08:00 +28°C° 0 mm 6 mps 732 mmHg 18%
    09:00 +30°C° 0 mm 6 mps 732 mmHg 16%
    10:00 +33°C° 0 mm 6 mps 731 mmHg 14%
    11:00 +35°C° 0 mm 5 mps 731 mmHg 12%
    12:00 +36°C° 0 mm 5 mps 730 mmHg 11%
    13:00 +37°C° 0 mm 4 mps 730 mmHg 10%
    14:00 +38°C° 0 mm 4 mps 729 mmHg 9%
    15:00 +37°C° 0 mm 4 mps 729 mmHg 9%
    16:00 +37°C° 0 mm 4 mps 728 mmHg 9%
    17:00 +37°C° 0 mm 4 mps 728 mmHg 9%
    18:00 +35°C° 0 mm 4 mps 728 mmHg 10%
    19:00 +33°C° 0 mm 5 mps 728 mmHg 12%
    20:00 +30°C° 0 mm 6 mps 728 mmHg 13%
    21:00 +30°C° 0 mm 6 mps 728 mmHg 13%
    22:00 +30°C° 0 mm 7 mps 729 mmHg 14%
    23:00 +29°C° 0 mm 8 mps 729 mmHg 14%

    11 December, Sunday

    Time Temperature Precipitation Wind Pressure Humidity
    00:00 +28°C° 0 mm 7 mps 728 mmHg 16%
    01:00 +27°C° 0 mm 6 mps 728 mmHg 17%
    02:00 +26°C° 0 mm 5 mps 728 mmHg 18%
    03:00 +25°C° 0 mm 4 mps 728 mmHg 19%
    04:00 +25°C° 0 mm 4 mps 728 mmHg 20%
    05:00 +24°C° 0 mm 3 mps 728 mmHg 22%
    06:00 +26°C° 0 mm 4 mps 729 mmHg 19%
    07:00 +29°C° 0 mm 5 mps 729 mmHg 16%
    08:00 +33°C° 0 mm 6 mps 729 mmHg 13%
    09:00 +35°C° 0 mm 5 mps 729 mmHg 12%
    10:00 +36°C° 0 mm 5 mps 729 mmHg 11%
    11:00 +38°C° 0 mm 4 mps 728 mmHg 10%
    12:00 +39°C° 0 mm 5 mps 728 mmHg 11%
    13:00 +39°C° 0 mm 5 mps 727 mmHg 12%
    14:00 +39°C° 0 mm 5 mps 726 mmHg 12%
    15:00 +38°C° 0 mm 6 mps 726 mmHg 14%
    16:00 +36°C° 0 mm 6 mps 725 mmHg 16%
    17:00 +35°C° 0 mm 6 mps 724 mmHg 17%
    18:00 +34°C° 0 mm 5 mps 724 mmHg 19%
    19:00 +33°C° 0 mm 3 mps 724 mmHg 20%
    20:00 +31°C° 0 mm 2 mps 724 mmHg 21%
    21:00 +30°C° 0 mm 4 mps 725 mmHg 30%
    22:00 +29°C° 0 mm 6 mps 725 mmHg 39%
    23:00 +28°C° 0 mm 8 mps 725 mmHg 48%

    12 December, Monday

    Time Temperature Precipitation Wind Pressure Humidity
    00:00 +27°C° 0 mm 7 mps 725 mmHg 52%
    01:00 +26°C° 0 mm 7 mps 724 mmHg 57%
    02:00 +24°C° 0 mm 6 mps 724 mmHg 62%
    03:00 +23°C° 0 mm 6 mps 724 mmHg 64%
    04:00 +22°C° 0 mm 6 mps 725 mmHg 66%
    05:00 +22°C° 0 mm 6 mps 725 mmHg 68%
    06:00 +22°C° 0.1 mm 6 mps 726 mmHg 67%
    07:00 +23°C° 0.1 mm 7 mps 727 mmHg 65%
    08:00 +23°C° 0.1 mm 7 mps 727 mmHg 63%
    09:00 +24°C° 0 mm 7 mps 727 mmHg 54%
    10:00 +26°C° 0 mm 7 mps 728 mmHg 45%
    11:00 +27°C° 0 mm 7 mps 728 mmHg 36%
    12:00 +29°C° 0 mm 7 mps 728 mmHg 30%
    13:00 +30°C° 0 mm 7 mps 728 mmHg 25%
    14:00 +33°C° 0 mm 6 mps 728 mmHg 20%
    15:00 +32°C° 0 mm 7 mps 728 mmHg 21%
    16:00 +30°C° 0 mm 7 mps 728 mmHg 23%
    17:00 +29°C° 0 mm 7 mps 728 mmHg 25%
    18:00 +27°C° 0 mm 7 mps 729 mmHg 27%
    19:00 +24°C° 0 mm 6 mps 729 mmHg 30%
    20:00 +22°C° 0 mm 6 mps 730 mmHg 33%
    21:00 +21°C° 0 mm 6 mps 730 mmHg 37%
    22:00 +18°C° 0 mm 7 mps 731 mmHg 40%
    23:00 +17°C° 0 mm 7 mps 731 mmHg 44%

    13 December, Tuesday

    Time Temperature Precipitation Wind Pressure Humidity
    00:00 +16°C° 0 mm 6 mps 731 mmHg 47%
    01:00 +15°C° 0 mm 6 mps 731 mmHg 50%
    02:00 +14°C° 0 mm 5 mps 731 mmHg 53%
    03:00 +13°C° 0 mm 4 mps 731 mmHg 55%
    04:00 +13°C° 0 mm 4 mps 732 mmHg 58%
    05:00 +12°C° 0 mm 3 mps 732 mmHg 60%
    06:00 +14°C° 0 mm 3 mps 733 mmHg 55%
    07:00 +16°C° 0 mm 3 mps 733 mmHg 49%
    08:00 +18°C° 0 mm 3 mps 733 mmHg 44%
    09:00 +20°C° 0 mm 3 mps 733 mmHg 38%
    10:00 +22°C° 0 mm 3 mps 733 mmHg 32%
    11:00 +25°C° 0 mm 3 mps 733 mmHg 26%
    12:00 +27°C° 0 mm 3 mps 732 mmHg 23%
    13:00 +28°C° 0 mm 3 mps 732 mmHg 21%
    14:00 +30°C° 0 mm 4 mps 731 mmHg 19%
    15:00 +30°C° 0 mm 4 mps 731 mmHg 19%
    16:00 +30°C° 0 mm 4 mps 731 mmHg 20%
    17:00 +30°C° 0 mm 4 mps 731 mmHg 20%
    18:00 +28°C° 0 mm 4 mps 732 mmHg 23%
    19:00 +26°C° 0 mm 4 mps 732 mmHg 27%
    20:00 +25°C° 0 mm 4 mps 733 mmHg 30%
    21:00 +22°C° 0 mm 5 mps 733 mmHg 37%
    22:00 +21°C° 0 mm 6 mps 733 mmHg 43%
    23:00 +20°C° 0 mm 7 mps 733 mmHg 49%
    Show more